Regional Weather Roundup
Issued by NWS Nashville, TN

Home | Current Version | Previous Version | Text Only | Print | Product List | Glossary On
Versions: 1 2 3 4 5 6 7 8 9 10 11 12 13 14 15 16 17 18 19 20 21 22 23 24 25 26 27 28 29 30 31 32 33 34 35 36 37 38 39 40 41 42 43 44 45 46 47 48 49 50
000
ASUS44 KOHX 301115
RWROHX
MIDDLE TENNESSEE HOURLY WEATHER ROUNDUP
NATIONAL WEATHER SERVICE NASHVILLE TN
600 AM CDT SAT MAY 30 2015

NOTE: "FAIR" INDICATES FEW OR NO CLOUDS BELOW 12,000 FEET WITH
NO SIGNIFICANT WEATHER AND/OR OBSTRUCTIONS TO VISIBILITY.

* THESE REPORTS ARE NOT UNDER NWS QUALITY CONTROL AND MAY NOT
  REPORT WEATHER SUCH AS PRECIPITATION AND FOG.


TNZ005>011-023>034-057-059-062>066-078-080-301200
...NORTHERN MIDDLE TENNESSEE...

CITY           SKY/WX    TMP DP  RH WIND       PRES   REMARKS
CASTALIAN SPRG   N/A     64  64 100 NE2       29.87F
CLARKSVILLE    PTCLDY    67  65  93 SE5       30.05R
CROSSVILLE     CLOUDY    68  61  78 S3        30.19R
GLADEVILLE*      N/A     68  64  88 S1        30.03S
JOELTON*         N/A     68  66  94 S1        29.99R
LIVINGSTON     CLOUDY    71  62  73 SW3       30.14S
MOUNT JULIET*    N/A     66  64  94 CALM      29.92S
NASHVILLE      PTCLDY    69  64  84 S7        30.08S
OLD HICKORY*     N/A     70  68  94 CALM      29.71R
ROCKWOOD       CLOUDY    67  65  93 S5        30.18R
SMYRNA         CLEAR     65  64  96 SE5       30.10R
SPARTA         MOCLDY    70  64  83 S7        30.13R
$$
TNZ056-058-060-061-075>077-079-093>097-301200
...SOUTHERN MIDDLE TENNESSEE...

CITY           SKY/WX    TMP DP  RH WIND       PRES   REMARKS
COLUMBIA       CLEAR     70  66  88 CALM      30.07R
LEWISBURG      CLEAR     64  64 100 CALM      30.09R
MANCHESTER*      N/A     64   0   7 CALM      30.06R
MCMINNVILLE    PTCLDY    66  66 100 CALM      30.13S
MOUNT PLEASANT   N/A     66  66 100 CALM      30.00S
SHELBYVILLE    CLEAR     70  64  83 SE5       30.11S
TULLAHOMA      CLEAR     64  63  94 CALM      30.13S
WINCHESTER     CLEAR     68  63  83 S9        30.14R
$$


...KEY TO REMARKS...
VSB - VISIBILITY IN MILES
WCI - WIND CHILL INDEX
HX  - HEAT INDEX



USA.gov is the U.S. government's official web portal to all federal, state and local government web resources and services.